TIME,DELAY(SENSOR),PRES,OXYGEN,RAWTEMP,T(OPTODE),TCPHASE,FLUOR,BETA(BETA700),BETA(BETA412),BETA(BETA440),CDOM,C(CSC),ED(ED411.90),ED(ED443.80),ED(ED489.40),ED(ED554.70),LU(LU412.20),LU(LU443.80),LU(LU489.40),LU(LU555.00),COMP,TILTX,TILTY,CHECK
1375307900,5806,872.3800048828125000,144.5444946289062500,439.0068054199219000,9.4102878570556640,40.8478088378906250,61,524,64,62,59,9689,2146962560,2147516544,2147290057,2147502144,2147086646,2146924278,2147704466,2147125897,2337,-1,8,13771
1375311496,5805,978.3400268554688000,173.8630981445312500,506.0828857421875000,7.3406519889831540,39.7298698425293000,62,538,63,63,59,9684,2146963757,2147520009,2147296731,2147514880,2147091145,2146913362,2147717037,2147119561,3242,-1,8,43841
1375315096,5805,989.5499877929688000,162.8690948486328000,516.4785766601562000,7.0173358917236330,40.7094497680664060,63,544,62,62,60,9683,2146961645,2147517257,2147300187,2147513856,2147085705,2146924480,2147725092,2147120164,3270,-1,8,59904
1375318696,5806,991.5200195312500000,144.0661010742187500,517.6760253906250000,6.9800472259521480,42.2037010192871100,62,542,65,62,60,9679,2146962029,2147515620,2147301915,2147513216,2147087954,2146918573,2147715520,2147121709,3210,-1,8,22389
1375322296,5804,991.5399780273438000,157.6024017333984400,520.2705078125000000,6.8992171287536620,41.1740417480468750,62,547,65,62,59,9679,2146962249,2147516754,2147298706,2147515986,2147087542,2146920713,2147717156,2147121142,649,-1,8,15520
1375325896,5808,993.7600097656250000,193.8695068359375000,522.2045288085938000,6.8389310836791990,38.6742286682128900,62,548,64,63,60,9678,2146963017,2147517952,2147298980,2147514048,2147084818,2146918720,2147714285,2147120201,650,-1,8,64608
1375329496,5806,994.2600097656250000,173.4360961914062500,524.4519042968750000,6.7688441276550290,40.0836791992187500,62,553,63,62,60,9671,2146962614,2147516096,2147300589,2147514130,2147088100,2146919122,2147717778,2147119213,958,-1,8,60394
1375333096,5803,992.8900146484375000,198.6972045898437500,525.6522216796875000,6.7313947677612305,38.4317398071289060,63,553,64,66,60,9668,2146963328,2147520822,2147299026,2147517814,2147087250,2146919561,2147724772,2147120868,2951,-1,8,23620
1375336696,5807,988.9400024414062000,197.9470977783203000,527.2047119140625000,6.6829428672790530,38.5062713623046900,63,555,64,62,59,9671,2146964388,2147518966,2147300946,2147515876,2147087387,2146916617,2147722404,2147121353,45,-1,8,33527
1375340296,5803,993.7700195312500000,202.6596984863281200,528.0955810546875000,6.6551318168640140,38.2317008972168000,61,559,63,62,59,9673,2146963602,2147520493,2147299995,2147519003,2147085257,2146914176,2147721408,2147119213,1016,-1,8,47477
1375343896,5807,993.9400024414062000,199.6188049316406200,528.0540161132812000,6.6564331054687500,38.4181518554687500,62,559,65,63,60,9668,2146963620,2147518930,2147301659,2147516672,2147089453,2146917851,2147724534,2147121874,3583,-1,8,60557
1375347496,5805,991.5700073242188000,174.5267944335937500,528.3380126953125000,6.6475639343261720,40.0747604370117200,62,559,64,63,60,9670,2146961060,2147518171,2147299382,2147514377,2147087652,2146914843,2147721728,2147118765,3529,0,8,40147
1375351096,5806,998.6799926757812000,180.6367034912109400,528.5397949218750000,6.6412639617919920,39.6574287414550800,62,560,64,63,60,9671,2146965010,2147520036,2147300196,2147518162,2147087835,2146917312,2147716790,2147119570,19,0,8,34910
1375354696,5804,997.1300048828125000,179.3831939697265600,528.5261230468750000,6.6416912078857420,39.7425804138183600,62,562,64,62,61,9669,2146960137,2147518134,2147298834,2147514715,2147088585,2146918052,2147719954,2147120146,163,-1,8,31558
1375358296,5803,1001.1900024414062000,193.0334930419922000,527.6787719726562000,6.6681461334228520,38.8254203796386700,62,563,65,62,60,9668,2146964086,2147518390,2147298221,2147514706,2147090852,2146917851,2147718838,2147123520,3336,-1,8,12114
1375361896,5804,1004.8900146484375000,200.8670043945312500,526.4071044921875000,6.7078380584716800,38.3110084533691400,62,566,64,62,60,9656,2146963099,2147520374,2147299830,2147515008,2147087149,2146923346,2147718262,2147120786,3438,0,8,39038
1375365496,5805,1006.8800048828125000,203.4550933837890600,525.3239135742188000,6.7416391372680660,38.1344490051269500,62,571,65,62,60,9663,2146966290,2147520640,2147300352,2147514212,2147088173,2146918308,2147716754,2147119698,215,-1,8,7809
1375369096,5804,1006.1300048828125000,199.9029998779297000,525.5745239257812000,6.7338190078735350,38.3559608459472660,62,570,63,62,59,9658,2146964324,2147517952,2147301056,2147515657,2147089974,2146919945,2147719296,2147118290,3370,0,8,60748
1375372696,5804,996.9299926757812000,201.4479064941406200,527.1923217773438000,6.6833310127258300,38.2897605895996100,62,571,64,62,60,9658,2146963904,2147518784,2147299218,2147514633,2147086454,2146920100,2147715538,2147122733,3375,-1,8,4939
1375376296,5806,997.2600097656250000,202.8903961181640600,528.5642089843750000,6.6405010223388670,38.2256584167480500,62,572,65,62,60,9659,2146962267,2147521380,2147298733,2147512612,2147089682,2146918299,2147717897,2147123108,119,-1,8,45438
1375379896,5805,991.2199707031250000,208.1219024658203000,530.6339111328125000,6.5758609771728520,37.9493408203125000,62,577,64,61,60,9660,2146963318,2147517924,2147300425,2147512914,2147086784,2146919341,2147721152,2147118464,3156,-1,8,5313
1375383496,5803,995.7800292968750000,210.6683959960937500,530.5770874023438000,6.5776329040527340,37.7981491088867200,62,572,64,61,60,9658,2146964022,2147519570,2147300772,2147514541,2147088365,2146920109,2147721700,2147119478,3439,-1,8,52334
1375387096,5804,999.4699707031250000,209.4309997558593800,529.7351074218750000,6.6039347648620605,37.8550605773925800,62,573,64,62,61,9654,2146963364,2147522221,2147298788,2147513810,2147088128,2146915648,2147722550,2147119917,2835,-1,8,20743
1375390696,5808,995.6400146484375000,211.1446075439453000,530.3154296875000000,6.5858101844787600,37.7654609680175800,62,574,63,61,60,9658,2146960896,2147516169,2147299035,2147514514,2147086025,2146916141,2147723181,2147120109,3208,-1,8,7187
1375394296,5808,993.6199951171875000,208.2059020996093800,530.8906860351562000,6.5678391456604000,37.9482192993164060,62,577,65,61,60,9654,2146964571,2147518747,2147300653,2147517723,2147086692,2146915026,2147716992,2147119844,67,-1,8,1238
1375397896,5806,996.1099853515625000,212.4004974365234400,529.5781250000000000,6.6088390350341800,37.6791801452636700,61,577,64,62,61,9654,2146964534,2147518153,2147301339,2147515904,2147085860,2146917101,2147720694,2147119533,262,-1,8,5866
1375401496,5806,999.6300048828125000,211.8842926025390600,529.7269287109375000,6.6041908264160160,37.7111396789550800,62,577,64,62,60,9657,2146961371,2147518098,2147298313,2147518080,2147083968,2146919524,2147720100,2147119341,33,-1,8,15493
1375405096,5807,998.6099853515625000,212.8152008056640600,530.9877929687500000,6.5648040771484375,37.6803512573242200,63,579,63,63,61,9661,2146963739,2147520859,2147299629,2147518875,2147087131,2146915273,2147718646,2147123419,935,-1,8,12649
1375408696,5807,998.3200073242188000,213.6860961914062500,530.6273193359375000,6.5760650634765625,37.6227607727050800,62,582,64,62,61,9653,2146962386,2147519744,2147299876,2147516315,2147085915,2146916909,2147719277,2147120182,704,0,8,51960
1375412296,5807,993.2500000000000000,203.3916931152343800,531.0233764648438000,6.5636920928955080,38.2394104003906250,63,583,64,62,60,9654,2146964964,2147518966,2147300845,2147515474,2147087917,2146914624,2147720274,2147118308,3341,-1,8,60004
1375415896,5807,988.6199951171875000,214.3643035888672000,532.7128906250000000,6.5108971595764160,37.6209793090820300,60,583,62,62,60,9654,2146963410,2147521700,2147303360,2147517110,2147089444,2146919744,2147722715,2147121152,632,-1,8,11174
1375419496,5805,988.0599975585938000,211.9161987304687500,533.8175048828125000,6.4763660430908200,37.7828712463378900,62,585,65,62,61,9651,2146962569,2147520960,2147301357,2147517001,2147088320,2146919862,2147718985,2147119387,3175,-1,8,19589
1375423096,5804,986.0599975585938000,199.5982971191406200,534.6687011718750000,6.4497528076171875,38.5372200012207000,62,586,64,62,61,9651,2146962825,2147518829,2147302025,2147515968,2147087296,2146919954,2147724489,2147117202,3391,0,8,52068
1375426696,5806,990.3900146484375000,214.9013977050781200,534.0963745117188000,6.4676461219787600,37.6151695251464840,63,629,81,61,62,9651,2146966610,2147515318,2147296502,2147519433,2147087689,2146917750,2147718016,2147118381,3427,-1,8,48326
1375430296,5806,994.0399780273438000,216.9149017333984400,532.6528930664062000,6.5127720832824710,37.4741401672363300,61,587,64,61,61,9651,2146963419,2147520237,2147299044,2147515648,2147088283,2146923483,2147720941,2147118326,128,-1,8,7930
1375433896,5808,996.7500000000000000,213.4757995605468800,531.5673217773438000,6.5466961860656740,37.6525611877441400,63,591,63,62,60,9652,2146964790,2147520228,2147302372,2147515035,2147090176,2146917632,2147720905,2147118162,599,-1,8,43803
1375437496,5808,991.9500122070312000,213.1605987548828000,532.8878784179688000,6.5054278373718260,37.6936492919921900,63,592,64,62,61,9651,2146964397,2147519524,2147301403,2147518665,2147086427,2146914002,2147716342,2147121810,13,-1,8,10166
1375441096,5809,994.8699951171875000,210.6786956787109400,532.8035278320312000,6.5080637931823730,37.8374786376953100,62,591,63,62,60,9651,2146965577,2147519195,2147304064,2147517376,2147086107,2146913645,2147723328,2147119360,3577,0,8,26721
1375444696,5805,994.0999755859375000,211.3804016113281200,532.7985839843750000,6.5082168579101560,37.7963294982910160,63,608,64,64,60,9649,2146964982,2147520192,2147304109,2147517165,2147087990,2146913636,2147719634,2147117330,355,-1,8,8527
1375448296,5804,996.8900146484375000,209.1741943359375000,532.5230712890625000,6.5168290138244630,37.9201316833496100,62,593,65,62,61,9651,2146964416,2147517202,2147300626,2147517302,2147087579,2146917504,2147718436,2147119424,3472,-1,8,32369
1375450255,5807,993.9199829101562000,207.9490051269531200,532.5571289062500000,6.5157642364501950,37.9940605163574200,62,597,64,61,60,9645,2146962102,2147517531,2147300041,2147514843,2147087122,2146917156,2147719808,2147117504,50,-1,8,6623
